Weather Service Report


933 
ASUS46 KPQR 222210
RWROR 

OREGON REGIONAL WEATHER ROUNDUP
NATIONAL WEATHER SERVICE PORTLAND OR
200 PM PST SUN JAN 22 2017

NOTE: "FAIR" INDICATES FEW OR NO CLOUDS BELOW 12,000 FEET WITH
NO SIGNIFICANT WEATHER AND/OR OBSTRUCTIONS TO VISIBILITY.

ORZ001>013-222300-
NORTHWEST OREGON

  
CITY           SKY/WX    TMP DP  RH WIND       PRES   REMARKS
ASTORIA        CLOUDY    50  35  56 S18G26    29.48R                  
NEWPORT        RAIN      43  37  81 S12G21    29.53R                  
PORTLAND       PTSUNNY   44  37  76 SE12      29.54F                  
VANCOUVER WA   CLOUDY    44  38  79 E9        29.54F                  
SCAPPOOSE      CLOUDY    50  39  66 E12       29.52F                  
HILLSBORO      PTSUNNY   50  37  61 S20G25    29.52F                  
AURORA         MOSUNNY   52  33  48 S12       29.54S                  
MCMINNVILLE    PTSUNNY   49  36  61 S21G28    29.53S                  
SALEM          PTSUNNY   49  34  56 S16       29.51S                  
CORVALLIS        N/A     46  36  66 S18G26    29.53R                  
EUGENE         CLOUDY    48  37  65 SW13      29.54S                  
$$

ORZ021-028-222300-
SOUTHWEST OREGON

  
CITY           SKY/WX    TMP DP  RH WIND       PRES   REMARKS
NORTH BEND     CLOUDY    43  39  87 SE15G21   29.50F                  
BROOKINGS      HVY RAIN  41  37  87 S10G31    29.58S FOG              
ROSEBURG       PTSUNNY   50  32  50 S10G20    29.53F                  
SEXTON SUMMIT  CLOUDY    30  28  92 VRB7G21   29.47F WCI  23          
MEDFORD        PTSUNNY   47  34  60 NW3       29.54F                  
$$

ORZ014>016-041-222300-
COLUMBIA GORGE

  
CITY           SKY/WX    TMP DP  RH WIND       PRES   REMARKS
TROUTDALE      PTSUNNY   43  36  76 E18       29.55S                  
THE DALLES     CLOUDY    39  36  89 N3        29.61R FOG              
$$

ORZ029>031-041-044-049-050-061>064-502-503-505>511-222300-
EASTERN OREGON

  
CITY           SKY/WX    TMP DP  RH WIND       PRES   REMARKS
REDMOND        SUNNY     41  16  36 SW12      29.51R                  
BEND           SUNNY     41  18  38 SW12      29.50R                  
PRINEVILLE     PTSUNNY   43  21  42 SW9       29.52R                  
KLAMATH FALLS  MOSUNNY   34  22  61 S15       29.52F WCI  24          
LAKEVIEW       SUNNY     34  21  60 S10       29.57S WCI  26          
HERMISTON      CLOUDY    36  33  89 SW10      29.56R WCI  28          
PENDLETON      CLOUDY    40  35  83 W21       29.51R WCI  30          
JOHN DAY       LGT SNOW  33  32  96 W13       29.56R WCI  24          
MEACHAM        CLOUDY    35  25  66 CALM      29.49R                  
LA GRANDE      CLOUDY    37  30  75 S18       29.55S WCI  27          
BAKER CITY     CLOUDY    33  28  81 E18       29.55F WCI  22          
BURNS          MOSUNNY   32  28  85 SW5       29.56R WCI  27          
ROME             N/A     35  30  82 S12       29.58F WCI  27          
ONTARIO        FLURRIES  36  31  82 S5        29.65S WCI  32          
$$
  

Return to Home page


Western Regional Climate Center, wrcc@dri.edu